Location: Jalan Sepang
(2.8072°N, 101.8021°E)
Time: 04:30:16
(UTC+00:00)

SL-8 R/B - Pass Details

Date: 15 May 2026
Orbit: 646 x 656 km, 48.4° (Epoch: 7 June)

Event Time Altitude Azimuth Distance (km) Brightness Sun altitude
Rises 12:34:15 0° 319° (NW) 2,943 8.1 -19.1°
Reaches altitude 10° 12:36:35 10° 317° (NW) 2,033 7.1 -19.6°
Maximum altitude 12:41:16 77° 232° (SW) 662 3.6 -20.7°
Enters shadow 12:42:42 44° 155° (SSE) 887 4.0 -21.0°
